User: anonymous   Login
Location: Unspecified
(35.6961°N, 0.0000°E)
Time: 10:48:05
(UTC+00:00)
Language:

UNISAT 6 - Orbit

View from above orbital plane
View from above orbital plane
View from above satellite
View from above satellite

Ground track
Ground track

The orbit data is extracted from the following two-line orbital elements,

1 40012U 14033C   19295.12543908  .00000169  00000-0  32335-4 0  9992
2 40012  97.7385 156.2187 0059517  53.8730 306.7967 14.74020523287161
Epoch (UTC): 22 October 2019 03:00:37
Eccentricity: 0.0059517
inclination: 97.7385°
perigee height: 606 km
apogee height: 690 km
right ascension of ascending node: 156.2187°
argument of perigee: 53.8730°
revolutions per day: 14.74020523
mean anomaly at epoch: 306.7967°
orbit number at epoch: 28716

The dashed part of the orbit path shows where the satellite is in the earth's shadow,  

DLR